"Pseudo-MPEC" for P211FjA

Created 2020 Jul 10 14:07:10 UT using Find_Orb

Click here for an explanation of pseudo-MPECs

 
 Astrometry: 
     P211FjA  C2020 06 13.B8-?c5G4\=#uNu8T,E,oSoMZ[x7it)v:l2t9V1#2`,-y`mxF=S2F52
     P211FjA  C2020 06 13j4GBK6qTg1S_:So%1'?=iW\=$S3WeWEfpWq$D\YQAs^6Roqqf`jxF52
     P211FjA  C2020 06 13waVPtgpR3\,]m#79uB4H'$PuKq6;o3%cQl3]YJi==F3/_.QM02QdF52
     P211FjA  C2020 06 13c5Z+))a.G8TZuAstrometry4^+d1#P6O[li2t/6=cNKw$_\Bj^abF52
     P211FjA  C2020 06 13IdheoXn*2:F@YPOufF8or5s1qo/VXuaxD?lNRau.'.^W]K#utO0mF52
     P211FjA  C2020 06 17a\=kM[JBFHtn/I71:nn?Ki9UT`6#Y'*n+,k-R-V!ePWVaKJ0kPy*F52
     P211FjA  C2020 06 17+-k!CH4%,\d8MLDZ\J5!FXr\Lc2%Gq3lL0:`5CT8J\+b-@cagAW_F52
     P211FjA  C2020 06 17$]jcIPh`0)P1*#P0:5rGV5bwWt65WlY@;uJ11B!a-'kd1U$G'%WhF52
     P211FjA KC2020 06 18TMbDs6vn+K=iO9jjK[d]ji*qnah6o;RmXL).thY8+Ihxm2x?ncV8H21
     P211FjA KC2020 06 18,`0!xkJmC=%IF3Chm\tp$rc6K\^h8wtRaNS_?#,=@2f@y0/lF]$/H21
     P211FjA KC2020 06 18Z:ZS/*vakKo*Dr6amH(g8PH83ewE01;=4JGdf8i[B4SYO[Wh]Ir,H21
     P211FjA KC2020 06 18a`KW]JhHe+\j-!VEj7hXD!.E6?gNC_Z^E_\/^+tCAPBtvgeE0s-/J04
     P211FjA KC2020 06 18/'P7JiK.50JK?b0n,R2\Na2;L*a6WHyAOOXy?*..:2Y4uD([vnq$J04
     P211FjA ^C2020 06 20.30385917 11 07.005+00 47 13.71   ~6K7q 21.77GVNEOCP568
     P211FjA ^C2020 06 20.30503617 11 06.918+00 47 13.76   ~6K7q 21.82GVNEOCP568
     P211FjA ^C2020 06 20.30621617 11 06.834+00 47 13.85   ~6K7q 21.75GVNEOCP568
     P211FjA |C2020 06 22/^@6h[L)redacted;LclickA3Uy2t)t\xap2\::=jb4nrr4.;o4;H06
     P211FjA |C2020 06 22S:6fp5RDsM'qhw)JkwA[_/O1\dsQ3.F@H\,rq9=D@x;.OxX@uS!5H06
     P211FjA KC2020 06 24b*xntO\(u*Wc#)V@Mvri*Ggg=IB,eL,du9Wbi3mFPp),jW\bf/A\H21
     P211FjA KC2020 06 24P8+rDqDQ[?1NPt=AH7GU[XkwXX`n68b7K`h`yh0M,here(n$Q_K`H21
     P211FjA KC2020 06 24@*QqcWpXGc2c7JBw*Ae:IKC=)NWU4Q9eI/)Za(iMkCd;e;y`:/,7H21
     P211FjA KC2020 06 25'5e^DS57r^G!s'!JiFmfor-XH;)/(5/$?GIr\:kuaFnBcIl,I_:?H21
     P211FjA KC2020 06 25=[6ED4E'9dN7d0(_r(-:k0aRZFly.4T.YLBX-5B5+Yy;9hDF\iWCH21
     P211FjA !C2020 06 26A7DgjbP%p^8vZp)Jl/qKA0m?WPchM*YqLIY():@%t6bD)./xY*.'673
     P211FjA !C2020 06 26$?1g-^K@0wjiyrM99Rh);ffutOM.Z658UF%=*P]n('^'eum=cv2)673
     P211FjA KC2020 06 27=.$l[2q!'GCx+N5V=87=#fdtO:-3Wok$*W*VXI7%F5dNJd^gVv^3H21
     P211FjA KC2020 06 27b.l=oYNJRH'7X_:o:*(i/G'PW#ik@EyfbHEkfow4P4m5NbSCG520H21
     P211FjA KC2020 06 2769:nq)_kO8Wk`V6L%4`UH-jQJwtKf`[#SOK$30obH-.6D4;2NJ4\H21
     P211FjA !C2020 06 27ne`k912SFi-u:1.$[J;2hRVGBPrV2fBr25]xi)gPY';g_P8el$Sx673
     P211FjA !C2020 06 27ZUE_q2r8.DJD\Hgei=xJ2f/cXt/\'-p\,LA$^mpmltk(vXGeOF5a673
     P211FjA KC2020 06 272D$Dr3y@P5'0_:XU-$OR,K0S69S%U?#YcOmCNgs=HO'-D9bQ=k*#104
     P211FjA KC2020 06 27pn1`.dec*hvm=CkEed3nxA87]CUO'2yPC`^.K!8nQ_euPe`o[s=Y104
     P211FjA KC2020 06 27n/qRR[48Zd\@jFW\n.uY)xCOZ=F91U0=a6xuO39eS;USrkG[@'%b104
     P211FjA KC2020 06 29O_YOSD*clT:A]'[H[PWhIH6^BqCPLjwCv,`8R:,Nw4/yI_V7b$MFH21
     P211FjA KC2020 06 29!x#DOAJ??Lo3-e=9mnMVnvJhX);Y^n\(C#RvYXklZx1Ql%?[npQrH21
     P211FjA  C2020 07 10^dUSC9G%uD\N`Yar$SSWd^IC^B%RlV%PtZ^=N_vI^YQxl8qpk$'0F51
     P211FjA  C2020 07 10bPSGs2SeCXp=m.[AmWDQjv*64!aZ%hjg?whl0B1ST'p!iQv7cABSF51
     P211FjA  C2020 07 10=LD+M+eRs/tl-b^=*Jp9+@:ur725XTBO'fZTqFaEU[7bCPY()A+JF51
     P211FjA  C2020 07 105Bl18GSg(@H6kHw6W2Nt0XS8X]3c-HD))explanationjnAkG/sAF51

Station data:
(104) San Marcello Pistoiese  (N44.063037 E10.804200)  Italy. 0.40-m f/5
   reflector.
(568) Mauna Kea  (N19.826116 W155.472200)  US/Hawaii.
(673) Table Mountain Observatory, Wrightwood  (N34.381488 W117.682170)
   US/California.  Observer W. M. Owen Jr. 0.61-m f/16 reflector + CCD.
(F51) Pan-STARRS 1, Haleakala  (N20.707235 W156.255910)  US/Hawaii.
   Observers N. Primak, A. Schultz, S. Watters, J. Thiel, T. Goggia. Measurer
   PS1 Science Consortium. 1.8-m Ritchey-Chrétien + CCD.
(F52) Pan-STARRS 2, Haleakala  (N20.707384 W156.255910)  US/Hawaii. 1.8-m
   Ritchey-Chrétien + CCD.
(H06) RAS Observatory, Mayhill  (N32.903325 W105.528700)  US/New
   Mexico.  Observers E. Guido, G. Sostero, V. Gonano, L. Donato.
(H21) Astronomical Research Observatory, Westfield  (N39.483057 W87.968270)
   US/Illinois. 0.76-m f/3.0 astrograph + CCD.
(J04) ESA Optical Ground Station, Tenerife  (N28.300924 W16.511830)  Canary
   Islands (Spain).  Observer D. Abreu. Measurers M. Micheli, D. Koschny, E.
   Schwab, M. Busch, A. Knöfel. 1.0-m f/4.4 reflector + CCD.

Orbital elements:  P211FjA
   Perihelion 2020 Nov 24.914090 +/- 1.83 TT = 21:56:17 (JD 2459178.414090)
Epoch 2020 Jul 10.0 TT = JDT 2459040.5   Sa: 0.2790   Ur: 0.8484
M 359.99628298 +/- 0.009            (J2000 ecliptic)          AutoNEOCP
n   0.00002695 +/- 4.68e-5          Peri.  104.72968 +/- 0.16
a1101.73868 +/- 1287                Node   348.62048 +/- 0.011
e   0.9946002 +/- 0.00624           Incl.  160.12684 +/- 0.0017
P  36569                   H 14.1   G  0.15   U  6.0  
q 5.94913346 +/- 0.00453    Q 2197.52823 +/- 744
From 39 observations 2020 June 13-July 10; mean residual 0".37
Residuals in arcseconds: 
200613 F52  .01-  .19+    200620 568  .06-  .20-    200627 H21  .04+  .46-    
200613 F52  .30+  .29-    200620 568  .10-  .19-    200627 H21  .12+  .39-    
200613 F52  .12+  .16-    200620 568  .10-  .14-    200627 673  .18-  .04+    
200613 F52  .15-  .43+    200622 H06  1.6-  .59-    200627 673  .13+  .04+    
200613 F52  .40+  .05+    200622 H06  1.6-  .31-    200627 104  .25-  .74-    
200617 F52  .06-  .08-    200624 H21  .05-  .08+    200627 104  .48+  .17-    
200617 F52  .15-  .13-    200624 H21  .09+  .07+    200627 104  .40-  .77-    
200617 F52  .03-  .12-    200624 H21  .24-  .01-    200629 H21  .23+  .28-    
200618 H21  .49+  .32+    200625 H21  .13+  .16+    200629 H21  .14-  .05+    
200618 H21  .50+  .27-    200625 H21  .04+  .04+    200710 F51  .01-  .03+    
200618 H21  .03+  .15+    200626 673  .06-  .13-    200710 F51  .19-  .01+    
200618 J04  .32-  .57-    200626 673  .24+  .45+    200710 F51  .07-  .04+    
200618 J04  .21+  .64+    200627 H21  .03-  .30-    200710 F51  .07-  .25-    

Ephemerides (geocentric):
Date (UTC) HH   RA              Dec         delta   r     elong  mag " sig PA
---- -- -- --  -------------   -----------  ------ ------ -----  --- ---- ---
2020 07 10 14  16 48 26.489   +00 43 46.28  5.2483 6.0269 136.5 22.1 .240 177
2020 07 10 15  16 48 23.913   +00 43 43.96  5.2487 6.0269 136.5 22.1 .241 177
2020 07 10 16  16 48 21.338   +00 43 41.63  5.2491 6.0268 136.5 22.1 .243 177
2020 07 10 17  16 48 18.764   +00 43 39.29  5.2495 6.0268 136.4 22.1 .245 177
2020 07 10 18  16 48 16.191   +00 43 36.95  5.2499 6.0267 136.4 22.1 .246 177
2020 07 10 19  16 48 13.619   +00 43 34.59  5.2503 6.0267 136.3 22.1 .248 177
2020 07 10 20  16 48 11.049   +00 43 32.23  5.2507 6.0266 136.3 22.1 .249 177
2020 07 10 21  16 48 08.479   +00 43 29.87  5.2511 6.0266 136.2 22.1 .251 177
2020 07 10 22  16 48 05.911   +00 43 27.49  5.2515 6.0265 136.2 22.1 .252 177
2020 07 10 23  16 48 03.344   +00 43 25.11  5.2519 6.0265 136.2 22.1 .254 177
2020 07 11 00  16 48 00.778   +00 43 22.72  5.2523 6.0264 136.1 22.1 .255 177
2020 07 11 01  16 47 58.213   +00 43 20.33  5.2527 6.0264 136.1 22.1 .257 176
2020 07 11 02  16 47 55.650   +00 43 17.93  5.2531 6.0263 136.0 22.1 .259 176
2020 07 11 03  16 47 53.087   +00 43 15.52  5.2535 6.0263 136.0 22.1 .260 176
2020 07 11 04  16 47 50.525   +00 43 13.10  5.2539 6.0263 136.0 22.1 .262 176
2020 07 11 05  16 47 47.965   +00 43 10.67  5.2543 6.0262 135.9 22.1 .263 176
2020 07 11 06  16 47 45.406   +00 43 08.24  5.2547 6.0262 135.9 22.1 .265 176
2020 07 11 07  16 47 42.848   +00 43 05.80  5.2551 6.0261 135.8 22.1 .267 176
2020 07 11 08  16 47 40.291   +00 43 03.36  5.2555 6.0261 135.8 22.1 .268 176
2020 07 11 09  16 47 37.735   +00 43 00.91  5.2559 6.0260 135.8 22.1 .270 176
2020 07 11 10  16 47 35.181   +00 42 58.45  5.2563 6.0260 135.7 22.1 .272 176
2020 07 11 11  16 47 32.627   +00 42 55.98  5.2567 6.0259 135.7 22.1 .273 176
2020 07 11 12  16 47 30.075   +00 42 53.50  5.2571 6.0259 135.6 22.1 .275 175
2020 07 11 13  16 47 27.524   +00 42 51.02  5.2575 6.0258 135.6 22.1 .276 175
2020 07 11 14  16 47 24.974   +00 42 48.53  5.2579 6.0258 135.5 22.1 .278 175
2020 07 11 15  16 47 22.425   +00 42 46.04  5.2583 6.0257 135.5 22.1 .280 175
2020 07 11 16  16 47 19.877   +00 42 43.53  5.2588 6.0257 135.5 22.1 .281 175
2020 07 11 17  16 47 17.330   +00 42 41.02  5.2592 6.0256 135.4 22.1 .283 175
2020 07 11 18  16 47 14.785   +00 42 38.51  5.2596 6.0256 135.4 22.1 .285 175
2020 07 11 19  16 47 12.241   +00 42 35.98  5.2600 6.0256 135.3 22.1 .286 175
2020 07 11 20  16 47 09.697   +00 42 33.45  5.2604 6.0255 135.3 22.1 .288 175
2020 07 11 21  16 47 07.155   +00 42 30.91  5.2608 6.0255 135.3 22.1 .290 175
2020 07 11 22  16 47 04.615   +00 42 28.37  5.2612 6.0254 135.2 22.1 .291 175
2020 07 11 23  16 47 02.075   +00 42 25.81  5.2616 6.0254 135.2 22.1 .293 175
2020 07 12 00  16 46 59.536   +00 42 23.25  5.2620 6.0253 135.1 22.1 .295 174
2020 07 12 01  16 46 56.999   +00 42 20.69  5.2625 6.0253 135.1 22.1 .297 174
2020 07 12 02  16 46 54.463   +00 42 18.11  5.2629 6.0252 135.0 22.1 .298 174
2020 07 12 03  16 46 51.928   +00 42 15.53  5.2633 6.0252 135.0 22.1 .300 174
2020 07 12 04  16 46 49.394   +00 42 12.94  5.2637 6.0251 135.0 22.1 .302 174
2020 07 12 05  16 46 46.861   +00 42 10.35  5.2641 6.0251 134.9 22.1 .303 174
2020 07 12 06  16 46 44.330   +00 42 07.74  5.2645 6.0250 134.9 22.1 .305 174
2020 07 12 07  16 46 41.799   +00 42 05.13  5.2649 6.0250 134.8 22.1 .307 174
2020 07 12 08  16 46 39.270   +00 42 02.52  5.2654 6.0250 134.8 22.1 .309 174
2020 07 12 09  16 46 36.742   +00 41 59.89  5.2658 6.0249 134.8 22.1 .310 174
2020 07 12 10  16 46 34.215   +00 41 57.26  5.2662 6.0249 134.7 22.1 .312 174
2020 07 12 11  16 46 31.690   +00 41 54.62  5.2666 6.0248 134.7 22.1 .314 174
2020 07 12 12  16 46 29.165   +00 41 51.98  5.2670 6.0248 134.6 22.1 .316 173
2020 07 12 13  16 46 26.642   +00 41 49.33  5.2674 6.0247 134.6 22.1 .317 173